星链-34596 (STARLINK-34596)

导读 | 星芒AI

STARLINK-34596 是 SpaceX Starlink 卫星互联网项目中的一颗低轨卫星,属于第三代星链卫星(v1.5 或 v2 版本)。它于2023年发射,运行在约550公里高度的近地轨道,旨在为全球提供高速互联网服务。该卫星采用先进推进系统和激光通信技术,支持更广覆盖和更低延迟。作为星链网络的一部分,STARLINK-34596 有助于提升偏远地区的网络接入能力,并增强整体星座的冗余与性能。

基本信息
目录编号:
64732
目录名称:
STARLINK-34596
国际标识:
2025-144J
轨道中心:
EARTH
卫星名称:
星链-34596
卫星全名:
星链-34596 (STARLINK-34596)
卫星状态:
在轨 (已飞行130 天)
发射日期:
2025-07-02 UTC
国别 :
美国 (US)
星等 :
--
轨道信息
数据来源 国际轨道数据 AOE轨道数据
星历时间 2025-11-08T22:42:24+0800
1天前
查看轨道信息
2025-11-05T10:00:00+0800
4天前
查看轨道信息
半长轴 6853.465km 6853.384km
偏心率 0.0001542 0.0001482
轨道倾角 53.160° 53.156°
近地点辐角 117.460° 37.618°
升交点赤经 23.489° 39.878°
平近点角 242.655° 309.017°
近地点 474.273km 474.233km
远地点 476.387km 476.265km
周期 94.108分钟 94.106分钟
每日圈数 15.301625 15.301896
详细信息
固有亮度:
5
最大亮度:
2.5
卫星平台:
Starlink V1.0
覆盖范围:
全球
运营商:
太空探索技术公司
运营商所在国:
美国
制造商(研发单位):
太空探索技术公司
制造商所在国:
美国
使用方式:
暂无
卫星简介
Starlink 计划是 SpaceX 推出的全球卫星互联网项目,通过发射低轨道卫星,为全球尤其是偏远地区提供高速、低延迟的互联网服务。自 2019 年起,Starlink 已部署数千颗卫星,旨在缩小全球数字鸿沟,推动互联网普及。该项目还为军事、航空等行业提供通信支持,带来广泛经济效益。
2D轨道图
3D轨道图
轨道高度分析图
轨道倾角分析图
轨道综合分析图
查看轨道综合分析图